Location: Go�ngahuizen
(53.0821°N, 5.8849°E)
Time: 13:51:02
(UTC+00:00)

Sich 1 - Pass Details

Date: 09 April 2020
Orbit: 593 x 626 km, 82.5° (Epoch: 02 June)

Event Time Altitude Azimuth Distance (km) Brightness Sun altitude
Rises 22:09:17 0° 351° (N) 2,929 7.7 -26.1°
Reaches altitude 10° 22:11:35 10° 357° (N) 2,016 6.6 -26.2°
Enters shadow 22:15:13 47° 39° (NE) 839 3.8 -26.4°
